STARLINK G (59928 NORAD) Tracking and Keplerian Element Data

This shows tracking and keplerian element data for the satellite.

Feedback or suggestion? Click here.




ElementValue
Catalog59928
NameSTARLINK G
Epoch Orbit234
Epoch Day160.25001157
Epoch Year2024
RAAN21.9514
Inclination43.0025
Eccentricity0.0001834
Argument of Perigee274.84
Mean Anonmoly270.3188
Mean Motion15.92143185
Decay Rate-0.00941319
L11 59928U 24106G 24160.25001157 -.00941319 27102-3 -27118-2 0 9995
L22 59928 43.0025 21.9514 0001834 274.8400 270.3188 15.92143185 2349



Live tracking and technical data element details for STARLINK G (NORAD 59928). STARLINK G can be tracked NOW for your location showing map with azimuth and elevation plus other details from your city location.







IsCatalogInMostPopularTable: catalog: 59928, numindb: 14
Update: records affected: 1



GetName: 59928 STARLINK G

Hit Count: updated at: Tue, 16 Jul 2024 02:57:40 GMT